User: anonymous   Login
Location: Unspecified
(0.0000°N, 0.0000°E)
Time: 01:12:46
(UTC+00:00)
Language:

USA 207 - Orbit

View from above orbital plane
View from above orbital plane
View from above satellite
View from above satellite

Ground track
Ground track

The orbit data is extracted from the following two-line orbital elements,

1 35815U 09047A   22293.64756977 0.00000000  00000-0  00000-0 0    04
2 35815   0.0370 311.9592 0018650 348.3604  11.6396  1.00241596    06
Epoch (UTC): 20 October 2022 15:32:30
Eccentricity: 0.0018650
inclination: 0.0370°
perigee height: 35716 km
apogee height: 35873 km
right ascension of ascending node: 311.9592°
argument of perigee: 348.3604°
revolutions per day: 1.00241596
mean anomaly at epoch: 11.6396°
orbit number at epoch: 0

The dashed part of the orbit path shows where the satellite is in the earth's shadow,  

DLR